| time (UTC) | temp F | wind direction | speed knots | gust knots | rain 1hr in | rain 24hr in | rain mn in | humidity % | barometer mb |
| 20260504044510 | 38 | 198 | 0.0 | 0.0 | 0.00 | 0.00 | 0.00 | 79 | 1014.3 |
| 20260504043007 | 38 | 198 | 0.0 | 0.0 | 0.00 | 0.00 | 0.00 | 79 | 1014.2 |
| 20260504041505 | 38 | 198 | 0.0 | 0.0 | 0.00 | 0.00 | 0.00 | 77 | 1013.9 |
| 20260504040006 | 39 | 198 | 0.0 | 0.0 | 0.00 | 0.00 | 0.00 | 77 | 1013.8 |
| 20260504034500 | 39 | 198 | 0.0 | 0.0 | 0.00 | 0.00 | 0.00 | 76 | 1013.9 |
| 20260504033102 | 40 | 198 | 0.0 | 0.0 | 0.00 | 0.00 | 0.00 | 75 | 1013.8 |
| 20260504031559 | 40 | 198 | 0.0 | 0.0 | 0.00 | 0.00 | 0.00 | 73 | 1013.9 |
| 20260504030055 | 41 | 198 | 0.0 | 0.0 | 0.00 | 0.00 | 0.00 | 73 | 1013.7 |
| 20260504024554 | 41 | 198 | 0.0 | 0.0 | 0.00 | 0.00 | 0.00 | 71 | 1013.8 |
| 20260504023100 | 42 | 198 | 0.0 | 0.0 | 0.00 | 0.00 | 0.00 | 70 | 1013.8 |
| 20260504021552 | 43 | 198 | 0.0 | 0.0 | 0.00 | 0.00 | 0.00 | 68 | 1013.9 |
| 20260504020051 | 43 | 198 | 0.0 | 0.0 | 0.00 | 0.00 | 0.00 | 67 | 1013.9 |
| 20260504014600 | 44 | 198 | 0.0 | 0.0 | 0.00 | 0.00 | 0.00 | 64 | 1013.7 |
| 20260504013049 | 45 | 198 | 0.0 | 0.0 | 0.00 | 0.00 | 0.00 | 62 | 1013.6 |
| 20260504011548 | 46 | 198 | 0.0 | 0.0 | 0.00 | 0.00 | 0.00 | 61 | 1013.5 |
| 20260504010053 | 48 | 198 | 0.0 | 0.0 | 0.00 | 0.00 | 0.00 | 59 | 1013.3 |
| 20260504004551 | 49 | 198 | 0.0 | 0.0 | 0.00 | 0.00 | 0.00 | 54 | 1013.1 |
| 20260504003055 | 51 | 198 | 0.0 | 0.0 | 0.00 | 0.00 | 0.00 | 49 | 1012.9 |
| 20260504001602 | 52 | 198 | 0.0 | 0.0 | 0.00 | 0.00 | 0.00 | 46 | 1012.7 |
| 20260504000052 | 53 | 194 | 0.0 | 0.0 | 0.00 | 0.00 | 0.00 | 43 | 1012.5 |
| 20260503234546 | 54 | 194 | 0.0 | 0.0 | 0.00 | 0.00 | 0.00 | 42 | 1012.3 |
| 20260503233046 | 55 | 194 | 0.0 | 0.0 | 0.00 | 0.00 | 0.00 | 40 | 1012.2 |
| 20260503231545 | 55 | 194 | 0.0 | 1.7 | 0.00 | 0.00 | 0.00 | 40 | 1012.1 |
| 20260503230047 | 55 | 298 | 0.0 | 0.9 | 0.00 | 0.00 | 0.00 | 39 | 1011.9 |
| 20260503224546 | 56 | 124 | 0.0 | 2.6 | 0.00 | 0.00 | 0.00 | 38 | 1011.9 |
| 20260503223044 | 56 | 194 | 0.0 | 1.7 | 0.00 | 0.00 | 0.00 | 36 | 1011.8 |
| 20260503221551 | 56 | 1 | 0.0 | 4.3 | 0.00 | 0.00 | 0.00 | 35 | 1011.7 |
| 20260503220043 | 57 | 289 | 0.0 | 2.6 | 0.00 | 0.00 | 0.00 | 35 | 1011.8 |
| 20260503214542 | 57 | 131 | 0.0 | 0.9 | 0.00 | 0.00 | 0.00 | 35 | 1011.7 |
| 20260503213044 | 57 | 128 | 0.0 | 6.1 | 0.00 | 0.00 | 0.00 | 34 | 1011.5 |
| 20260503211541 | 56 | 124 | 0.9 | 4.3 | 0.00 | 0.00 | 0.00 | 33 | 1011.5 |
| 20260503210041 | 56 | 127 | 0.0 | 2.6 | 0.00 | 0.00 | 0.00 | 34 | 1011.6 |
| 20260503204542 | 56 | 157 | 0.9 | 5.2 | 0.00 | 0.00 | 0.00 | 33 | 1011.5 |
| 20260503203040 | 56 | 196 | 0.0 | 3.5 | 0.00 | 0.00 | 0.00 | 35 | 1011.8 |
| 20260503201539 | 56 | 135 | 0.0 | 4.3 | 0.00 | 0.00 | 0.00 | 35 | 1011.8 |
| 20260503200038 | 56 | 153 | 0.0 | 5.2 | 0.00 | 0.00 | 0.00 | 34 | 1012.0 |
| 20260503194538 | 57 | 289 | 0.9 | 5.2 | 0.00 | 0.00 | 0.00 | 35 | 1012.0 |
| 20260503193042 | 56 | 134 | 0.9 | 7.8 | 0.00 | 0.00 | 0.00 | 36 | 1011.9 |
| 20260503191536 | 56 | 117 | 0.0 | 2.6 | 0.00 | 0.00 | 0.00 | 35 | 1012.1 |
| 20260503190039 | 56 | 120 | 0.0 | 1.7 | 0.00 | 0.00 | 0.00 | 36 | 1012.4 |
| 20260503184535 | 57 | 316 | 0.0 | 3.5 | 0.00 | 0.00 | 0.00 | 38 | 1012.3 |
| 20260503183038 | 56 | 194 | 0.0 | 2.6 | 0.00 | 0.00 | 0.00 | 39 | 1012.5 |
| 20260503181532 | 56 | 194 | 0.9 | 3.5 | 0.00 | 0.00 | 0.00 | 38 | 1012.4 |
| 20260503180031 | 55 | 357 | 0.0 | 4.3 | 0.00 | 0.00 | 0.00 | 38 | 1012.4 |
| 20260503174532 | 55 | 278 | 0.0 | 2.6 | 0.00 | 0.00 | 0.00 | 41 | 1012.7 |
| 20260503173028 | 55 | 194 | 0.0 | 4.3 | 0.00 | 0.00 | 0.00 | 38 | 1012.8 |
| 20260503171525 | 54 | 125 | 0.0 | 2.6 | 0.00 | 0.00 | 0.00 | 44 | 1013.0 |
| 20260503081536 | 43 | 238 | 0.0 | 2.6 | 0.00 | 0.02 | 0.00 | 61 | 1011.9 |
| 20260503071536 | 43 | 107 | 0.0 | 1.7 | 0.00 | 0.02 | 0.00 | 61 | 1011.6 |
| 20260503054529 | 45 | 194 | 0.0 | 1.7 | 0.00 | 0.02 | 0.00 | 57 | 1011.9 |
| 20260503053018 | 45 | 168 | 0.0 | 0.9 | 0.00 | 0.02 | 0.00 | 57 | 1012.1 |
| 20260503051525 | 46 | 195 | 0.0 | 0.9 | 0.00 | 0.02 | 0.00 | 56 | 1012.3 |
| 20260503050021 | 46 | 194 | 0.0 | 0.9 | 0.00 | 0.02 | 0.00 | 55 | 1012.4 |